This demonstration page uses our WeatherBlox Daily Observations layout. Learn more.

Left ArrowRight Arrow

40.92945, -100.16068

Hourly Observations for April 29, 2015

Temp ( °F °C ) Dew Point ( °F °C ) Humidity (%) Winds ( mph kmh ) Pressure ( in mb ) Visibility ( mi km ) Precip ( " mm )
12:15 am 00:15 Clear 45 7.1 38 3.6 79 79 NNE 5 7 30.18 1022 10 16 N/A
12:35 am 00:35 Clear 44 6.5 38 3.4 81 81 NE 6 9 30.18 1022 10 16 N/A
12:55 am 00:55 Clear 43 6.1 38 3.1 81 81 NE 8 13 30.18 1022 10 16 N/A
1:15 am 01:15 Clear 43 6.2 38 3.1 81 81 NE 3 6 30.18 1022 10 16 N/A
1:35 am 01:35 Clear 41 4.8 36 2.3 84 84 N N/A 30.18 1022 10 16 N/A
1:55 am 01:55 Clear 43 6.3 38 3.5 82 82 N N/A 30.18 1022 10 16 N/A
2:15 am 02:15 Clear 43 6.1 37 2.7 79 79 N N/A 30.18 1022 10 16 N/A
2:35 am 02:35 Clear 40 4.5 36 2.1 85 85 W 5 7 30.18 1022 10 16 N/A
2:55 am 02:55 Clear 39 4.1 35 1.6 84 84 W 5 7 30.18 1022 10 16 N/A
3:15 am 03:15 Clear 39 4 36 2 87 87 N N/A 30.18 1022 10 16 N/A
3:35 am 03:35 Clear 38 3.3 35 1.4 88 88 N N/A 30.18 1022 10 16 N/A
3:55 am 03:55 Clear 37 3 34 1 87 87 NW 6 9 30.18 1022 10 16 N/A
4:15 am 04:15 Clear 37 2.6 34 1 89 89 NNW 5 7 30.18 1022 10 16 N/A
4:35 am 04:35 Clear 37 2.5 34 1.1 91 91 NNW 7 11 30.18 1022 10 16 N/A
4:55 am 04:55 Clear 37 2.5 34 1.1 91 91 NNW 3 6 30.18 1022 10 16 N/A
5:15 am 05:15 Clear 36 2.2 33 0.8 91 91 NW 5 7 30.18 1022 10 16 N/A
5:35 am 05:35 Clear 35 1.8 33 0.5 91 91 W 3 6 30.18 1022 10 16 N/A
5:55 am 05:55 Clear 36 2.1 33 0.8 91 91 W 5 7 30.18 1022 10 16 N/A
6:15 am 06:15 Clear 35 1.8 33 0.5 91 91 W 5 7 30.18 1022 10 16 N/A
6:35 am 06:35 Clear 35 1.4 32 0.1 91 91 WNW 5 7 30.21 1023 10 16 N/A
6:55 am 06:55 Sunny 35 1.6 33 0.5 93 93 NNW 3 6 30.18 1022 10 16 N/A
7:15 am 07:15 Sunny with Mist and Fog 35 1.6 33 0.5 93 93 NW 3 6 30.18 1022 5 8 N/A
7:35 am 07:35 Sunny 38 3.2 36 2.1 93 93 N N/A 30.18 1022 10 16 N/A
7:55 am 07:55 Sunny 41 4.8 38 3.5 91 91 N N/A 30.15 1021 10 16 N/A
8:15 am 08:15 Sunny 43 6.3 40 4.6 89 89 N N/A 30.15 1021 10 16 N/A
8:35 am 08:35 Sunny 46 7.6 41 5.2 85 85 N N/A 30.12 1020 10 16 N/A
8:55 am 08:55 Sunny 49 9.3 43 6 80 80 W 3 6 30.12 1020 10 16 N/A
9:15 am 09:15 Sunny 51 10.6 43 6 73 73 N N/A 30.09 1019 10 16 N/A
9:35 am 09:35 Sunny 54 12.1 43 6.1 67 67 N N/A 30.09 1019 10 16 N/A
9:55 am 09:55 Sunny 56 13.2 44 6.5 64 64 SE 5 7 30.09 1019 10 16 N/A
10:15 am 10:15 Sunny 58 14.2 43 6 58 58 ESE 5 7 30.09 1019 10 16 N/A
10:35 am 10:35 Sunny 59 15.1 44 6.6 57 57 ESE 5 7 30.06 1018 10 16 N/A
10:55 am 10:55 Sunny 61 15.9 42 5.5 50 50 E 6 9 30.03 1017 10 16 N/A
11:15 am 11:15 Sunny 61 16.2 42 5.5 49 49 SSE 7 11 30.03 1017 10 16 N/A
11:35 am 11:35 Sunny 62 16.6 40 4.7 45 45 S 7 11 30.03 1017 10 16 N/A
11:55 am 11:55 Sunny 63 17.4 43 5.9 47 47 SSE 6 9 30.03 1017 10 16 N/A
12:15 pm 12:15 Sunny 65 18.1 43 5.9 45 45 N N/A 30.00 1016 10 16 N/A
12:35 pm 12:35 Sunny 65 18.4 42 5.8 44 44 N N/A 29.97 1015 10 16 N/A
12:55 pm 12:55 Sunny 66 18.8 44 6.5 45 45 ENE 6 9 29.97 1015 10 16 N/A
1:15 pm 13:15 Partly Cloudy 66 19 43 6.2 43 43 NE 7 11 29.97 1015 10 16 N/A
1:35 pm 13:35 Cloudy 66 19.1 42 5.7 42 42 NNW 5 7 29.97 1015 10 16 N/A
1:55 pm 13:55 Mostly Cloudy 67 19.3 40 4.6 38 38 N N/A 29.97 1015 10 16 N/A
2:15 pm 14:15 Mostly Cloudy 66 19 40 4.7 39 39 ESE 5 7 29.97 1015 10 16 N/A
2:35 pm 14:35 Partly Cloudy 68 20 39 4.1 35 35 N N/A 29.97 1015 10 16 N/A
2:55 pm 14:55 Sunny 69 20.4 39 4.1 34 34 N N/A 29.97 1015 10 16 N/A
3:15 pm 15:15 Partly Cloudy 68 20.1 40 4.3 35 35 E 3 6 29.91 1013 10 16 N/A
3:35 pm 15:35 Sunny 69 20.7 40 4.3 34 34 N N/A 29.91 1013 10 16 N/A
3:55 pm 15:55 Hazy 69 20.8 40 4.5 34 34 ESE 6 9 29.91 1013 3 5 N/A
4:15 pm 16:15 Sunny 69 20.5 40 4.5 35 35 ENE 3 6 29.91 1013 10 16 N/A
4:35 pm 16:35 Partly Cloudy 69 20.7 40 4.3 34 34 N N/A 29.91 1013 10 16 N/A
4:55 pm 16:55 Partly Cloudy 70 21 41 4.9 35 35 S 6 9 29.88 1012 10 16 N/A
5:15 pm 17:15 Partly Cloudy 69 20.5 40 4.6 35 35 N N/A 29.88 1012 10 16 N/A
5:35 pm 17:35 Partly Cloudy 71 21.4 38 3.6 31 31 N N/A 29.88 1012 10 16 N/A
5:55 pm 17:55 Sunny 70 21.3 38 3.5 31 31 N N/A 29.88 1012 10 16 N/A
6:15 pm 18:15 Sunny 70 21.2 41 4.8 34 34 ESE 8 13 29.88 1012 10 16 N/A
6:35 pm 18:35 Sunny 70 21 39 4.1 33 33 ESE 6 9 29.88 1012 10 16 N/A
6:55 pm 18:55 Sunny 69 20.8 41 5.1 36 36 ESE 5 7 29.88 1012 10 16 N/A
7:15 pm 19:15 Sunny 69 20.3 42 5.3 38 38 SE 5 7 29.88 1012 10 16 N/A
7:35 pm 19:35 Sunny 67 19.6 42 5.4 40 40 SE 6 9 29.88 1012 10 16 N/A
7:55 pm 19:55 Sunny 66 18.9 41 5 40 40 SE 5 7 29.91 1013 10 16 N/A
8:15 pm 20:15 Sunny 64 17.6 42 5.5 45 45 ESE 6 9 29.88 1012 10 16 N/A
8:35 pm 20:35 Clear 62 16.9 41 5.1 46 46 E 8 13 29.88 1012 10 16 N/A
8:55 pm 20:55 Clear 61 16 41 5 48 48 E 9 15 29.88 1012 10 16 N/A
9:15 pm 21:15 Clear 61 16 40 4.6 47 47 ESE 10 17 29.94 1014 10 16 N/A
9:35 pm 21:35 Clear 59 15.1 40 4.7 50 50 ESE 10 17 29.94 1014 10 16 N/A
9:55 pm 21:55 Clear 58 14.3 41 4.8 53 53 ESE 9 15 29.94 1014 10 16 N/A
10:15 pm 22:15 Clear 56 13.6 41 4.8 56 56 ESE 9 15 29.94 1014 10 16 N/A
10:35 pm 22:35 Clear 56 13.1 40 4.7 57 57 ESE 7 11 29.94 1014 10 16 N/A
10:55 pm 22:55 Clear 54 12.1 41 5 62 62 ESE 7 11 29.97 1015 10 16 N/A
11:15 pm 23:15 Clear 53 11.7 41 4.8 63 63 ESE 8 13 29.97 1015 10 16 N/A
11:35 pm 23:35 Clear 52 11.2 40 4.6 64 64 SE 7 11 29.97 1015 10 16 N/A
11:55 pm 23:55 Clear 52 11.3 39 4.1 62 62 SE 7 11 29.97 1015 10 16 N/A

Powered by AerisWeather